TimeCET,TemperatureF,Dew PointF,Humidity,Sea Level PressureIn,VisibilityMPH,Wind Direction,Wind SpeedMPH,Gust SpeedMPH,PrecipitationIn,Events,Conditions,WindDirDegrees,DateUTC
12:20 AM,41.0,39.2,93,29.98,3.1,SE,8.1,-,N/A,,Unknown,140,2012-11-20 23:20:00
12:50 AM,41.0,39.2,93,29.95,3.7,SE,8.1,-,N/A,,Unknown,140,2012-11-20 23:50:00
1:00 AM,42,39,87,29.97,,SE,8.9,,,,Mostly Cloudy,140,2012-11-21 00:00:00
1:20 AM,41.0,39.2,93,29.95,3.1,SSE,4.6,-,N/A,,Unknown,160,2012-11-21 00:20:00
1:50 AM,39.2,37.4,93,29.95,2.8,SSE,4.6,-,N/A,,Unknown,150,2012-11-21 00:50:00
2:20 AM,35.6,35.6,100,29.95,-9999.0,SE,5.8,-,N/A,,Unknown,130,2012-11-21 01:20:00
2:50 AM,35.6,35.6,100,29.95,2.2,ESE,8.1,-,N/A,,Mist,120,2012-11-21 01:50:00
3:20 AM,37.4,35.6,93,29.92,-9999.0,ESE,6.9,-,N/A,,Unknown,120,2012-11-21 02:20:00
3:50 AM,37.4,35.6,93,29.92,-9999.0,ESE,6.9,-,N/A,,Unknown,120,2012-11-21 02:50:00
4:00 AM,38,36,91,29.93,,ESE,6.7,,,,,120,2012-11-21 03:00:00
4:20 AM,39.2,37.4,93,29.92,3.7,SE,8.1,-,N/A,,Unknown,130,2012-11-21 03:20:00
4:50 AM,37.4,35.6,93,29.89,3.1,ESE,6.9,-,N/A,,Unknown,120,2012-11-21 03:50:00
5:20 AM,37.4,35.6,93,29.89,3.1,ESE,6.9,-,N/A,,Unknown,120,2012-11-21 04:20:00
5:50 AM,39.2,35.6,87,29.89,3.1,ESE,5.8,-,N/A,,Unknown,120,2012-11-21 04:50:00
6:20 AM,37.4,35.6,93,29.89,3.1,ESE,5.8,-,N/A,,Unknown,120,2012-11-21 05:20:00
6:50 AM,37.4,35.6,93,29.89,4.3,ESE,5.8,-,N/A,,Unknown,120,2012-11-21 05:50:00
7:00 AM,37,35,91,29.90,4,ESE,6.7,,,,Clear,120,2012-11-21 06:00:00
7:20 AM,37.4,35.6,93,29.89,4.3,ESE,5.8,-,N/A,,Unknown,120,2012-11-21 06:20:00
7:50 AM,37.4,35.6,93,29.86,4.3,ESE,6.9,-,N/A,,Unknown,120,2012-11-21 06:50:00
8:20 AM,37.4,35.6,93,29.86,4.3,ESE,9.2,-,N/A,,Unknown,120,2012-11-21 07:20:00
8:50 AM,39.2,35.6,87,29.86,4.3,SE,8.1,-,N/A,,Unknown,130,2012-11-21 07:50:00
9:20 AM,39.2,37.4,93,29.86,4.3,ESE,9.2,-,N/A,,Unknown,120,2012-11-21 08:20:00
9:50 AM,41.0,37.4,87,29.86,4.3,SE,9.2,-,N/A,,Unknown,130,2012-11-21 08:50:00
10:00 AM,40,37,87,29.86,4,SE,8.9,,,,Partly Cloudy,130,2012-11-21 09:00:00
10:20 AM,41.0,37.4,87,29.86,4.3,SE,8.1,-,N/A,,Scattered Clouds,140,2012-11-21 09:20:00
10:50 AM,42.8,37.4,81,29.86,-9999.0,SSE,9.2,-,N/A,,Clear,150,2012-11-21 09:50:00
11:20 AM,42.8,37.4,81,29.83,-9999.0,SSE,10.4,-,N/A,,Clear,150,2012-11-21 10:20:00
11:50 AM,44.6,37.4,76,29.83,-9999.0,South,10.4,-,N/A,,Clear,170,2012-11-21 10:50:00
12:20 PM,46.4,37.4,71,29.83,-9999.0,South,10.4,-,N/A,,Clear,170,2012-11-21 11:20:00
12:50 PM,46.4,37.4,71,29.83,-9999.0,South,9.2,-,N/A,,Clear,170,2012-11-21 11:50:00
1:00 PM,46,38,64,29.84,16,South,8.9,,,,Scattered Clouds,170,2012-11-21 12:00:00
1:20 PM,46.4,39.2,76,29.83,-9999.0,SSE,9.2,-,N/A,,Clear,160,2012-11-21 12:20:00
1:50 PM,46.4,41.0,81,29.83,4.3,South,8.1,-,N/A,Rain,Light Rain,170,2012-11-21 12:50:00
2:20 PM,46.4,42.8,87,29.83,5.0,SSE,6.9,-,N/A,Rain,Light Rain,150,2012-11-21 13:20:00
2:50 PM,46.4,42.8,87,29.83,5.0,South,8.1,-,N/A,Rain,Light Rain,180,2012-11-21 13:50:00
3:20 PM,46.4,42.8,87,29.83,5.0,South,8.1,-,N/A,Rain,Light Rain,180,2012-11-21 14:20:00
3:50 PM,48.2,42.8,82,29.83,6.2,South,11.5,-,N/A,Rain,Light Rain,190,2012-11-21 14:50:00
4:00 PM,47,43,82,29.86,7,South,11.2,,,Rain,Light Rain,190,2012-11-21 15:00:00
4:20 PM,48.2,44.6,87,29.86,6.2,SSW,13.8,-,N/A,,Mostly Cloudy,200,2012-11-21 15:20:00
4:50 PM,48.2,44.6,87,29.86,6.2,South,16.1,-,N/A,,Mostly Cloudy,190,2012-11-21 15:50:00
5:20 PM,48.2,44.6,87,29.86,6.2,South,16.1,-,N/A,,Mostly Cloudy,190,2012-11-21 16:20:00
5:50 PM,48.2,44.6,87,29.86,6.2,SSW,15.0,-,N/A,,Scattered Clouds,200,2012-11-21 16:50:00
6:20 PM,50.0,44.6,82,29.86,6.2,SSW,16.1,-,N/A,,Scattered Clouds,210,2012-11-21 17:20:00
6:50 PM,51.8,44.6,76,29.89,6.2,SSW,17.3,28.8,N/A,,Mostly Cloudy,210,2012-11-21 17:50:00
7:00 PM,51,44,71,29.89,12,SSW,17.9,,,,Partly Cloudy,210,2012-11-21 18:00:00
7:20 PM,51.8,44.6,76,29.89,6.2,SW,19.6,-,N/A,,Mostly Cloudy,220,2012-11-21 18:20:00
7:50 PM,51.8,42.8,71,29.92,6.2,SW,18.4,32.2,N/A,,Mostly Cloudy,230,2012-11-21 18:50:00
8:20 PM,51.8,42.8,71,29.92,6.2,WSW,19.6,-,N/A,,Mostly Cloudy,240,2012-11-21 19:20:00
8:50 PM,51.8,42.8,71,29.95,6.2,WSW,18.4,-,N/A,,Mostly Cloudy,240,2012-11-21 19:50:00
9:20 PM,51.8,41.0,67,29.98,6.2,WSW,21.9,35.7,N/A,,Mostly Cloudy,250,2012-11-21 20:20:00
9:50 PM,50.0,41.0,71,30.01,6.2,WSW,17.3,-,N/A,,Mostly Cloudy,240,2012-11-21 20:50:00
10:00 PM,50,41,61,30.01,12,WSW,17.9,,,,Mostly Cloudy,240,2012-11-21 21:00:00
10:20 PM,50.0,41.0,71,30.01,6.2,WSW,17.3,-,N/A,,Mostly Cloudy,250,2012-11-21 21:20:00
10:50 PM,50.0,41.0,71,30.04,6.2,WSW,16.1,-,N/A,,Mostly Cloudy,250,2012-11-21 21:50:00
11:20 PM,48.2,41.0,76,30.04,-9999.0,WSW,10.4,-,N/A,,Clear,240,2012-11-21 22:20:00
11:50 PM,48.2,41.0,76,30.06,-9999.0,SW,9.2,-,N/A,,Clear,230,2012-11-21 22:50:00